Regional Weather Roundup
Issued by NWS

Home | Current Version | Previous Version | Text Only | Print | Product List | Glossary Off
Versions: 1 2 3 4 5 6 7 8 9 10 11 12 13 14 15 16 17 18 19 20 21 22 23 24 25 26 27 28 29 30 31 32 33 34 35 36 37 38 39 40 41 42 43 44 45 46 47 48 49 50

828
ASUS45 KBOI 040210
RWRID

IDAHO REGIONAL WEATHER ROUNDUP
NATIONAL WEATHER SERVICE BOISE ID
800 PM MDT TUE MAY 03 2016

NOTE: "FAIR" INDICATES FEW OR NO CLOUDS BELOW 12000 FEET
WITH NO SIGNIFICANT WEATHER AND/OR OBSTRUCTIONS TO VISIBILITY

IDZ012-014-040300-
SOUTHWEST IDAHO


CITY           SKY/WX    TMP DP  RH WIND       PRES   REMARKS
BOISE          CLEAR     77  29  17 SE9       30.00F
CALDWELL       CLEAR     74  39  28 E7        29.97F
MOUNTAIN HOME  CLEAR     76  37  24 E12       30.01F
$$

IDZ016-017-040300-
SOUTHCENTRAL IDAHO


CITY           SKY/WX    TMP DP  RH WIND       PRES   REMARKS
BURLEY         CLEAR     68  35  29 SE10      30.08F
JEROME         CLEAR     70  38  31 NE8       30.08F
TWIN FALLS     CLEAR     71  35  26 N3        30.07F
$$

IDZ019>023-040300-
SOUTHEAST IDAHO


CITY           SKY/WX    TMP DP  RH WIND       PRES   REMARKS
IDAHO FALLS    CLEAR     69  27  20 CALM      30.15F
POCATELLO      CLEAR     67  41  38 W5        30.14S
REXBURG        CLEAR     68  27  21 W5        30.15F
$$

IDZ006-010-011-018-031-032-040300-
CENTRAL IDAHO MOUNTAINS


CITY           SKY/WX    TMP DP  RH WIND       PRES   REMARKS
MCCALL         CLEAR     64  34  32 W8        30.11S
HAILEY         CLEAR     61  34  36 CALM      30.17F
STANLEY          N/A     63  21  20 VRB3      30.18S
SALMON         CLEAR     72  30  21 CALM      29.99S
CHALLIS        CLEAR     70  17  13 S13       30.08S
$$

IDZ002-004-006-007-026-040300-
NORTHERN IDAHO


CITY           SKY/WX    TMP DP  RH WIND       PRES   REMARKS
LEWISTON       CLEAR     82  42  24 E5        29.90F
LOWELL           N/A     65  53  65 CALM      29.91S
COEUR D`ALENE  CLEAR     77  43  29 W9        29.92S
MULLAN PASS    CLEAR     61  24  24 VRB5      30.14F
$$




USA.gov is the U.S. government's official web portal to all federal, state and local government web resources and services.